Flag for U.S.A. Weather past 2 weeks in Hudson, Wisconsin, U.S.A.

Now
28 °F

Light snow. Ice fog.


Feels Like: 21 °F
Forecast: 16 / 29 °F
Wind: 7 mph from Northwest

Location: St. Paul Downtown Holman Field

Current Time: Dec 27, 2014 at 1:24:00 AM

Latest Report: Dec 27, 2014 at 12:53 AM


Visibility: 2 mi

Pressure: 30.06 "Hg

Humidity: 89%

Dew point: 25 °F

Location of HudsonLocation

Historic Weather in Hudson — Graph

°F

Hudson temperature yesterday

Maximum temperature yesterday: 33 °F (at 6:53 AM)
Minimum temperature yesterday: 28 °F (at 11:53 PM)
Average temperature yesterday: 31 °F

Past Weeks' High & Low Weather Summary

 TemperatureHumidityPressure
High48 °F (Dec 14, 2:53 PM)100% (Dec 12, 12:53 AM)30.39 "Hg (Dec 12, 12:53 AM)
Low11 °F (Dec 17, 6:53 AM)68% (Dec 17, 1:53 PM)29.61 "Hg (Dec 24, 9:02 PM)
Average32 °F88%30.00 "Hg
* Reported Dec 11 11:53 PM — Dec 26 11:53 PM, Hudson, Weather by CustomWeather, © 2014

Note: Actual official high and low records may vary slightly from our data, if they occured in-between our weather recording intervals... More about our weather records

Advertising

Hudson weather history for previous 24 hours

 ConditionsComfort  
Time TempWeatherWind HumidityBarometerVisibility
11:53 PM
Dec 26
28 °FMostly cloudy.6 mph89%30.06 "Hg10 mi
10:53 PM29 °FLight snow. Ice fog.8 mph89%30.10 "Hg5 mi
9:53 PM29 °FLight snow. Ice fog.9 mph89%30.10 "Hg6 mi
8:53 PM29 °FLight snow. Ice fog.9 mph93%30.10 "Hg2 mi
7:53 PM29 °FLight snow. Ice fog.7 mph93%30.12 "Hg2 mi
6:53 PM31 °FOvercast.9 mph79%30.12 "Hg10 mi
5:53 PM31 °FOvercast.13 mph79%30.09 "Hg10 mi
4:53 PM32 °FOvercast.6 mph79%30.09 "Hg10 mi
3:53 PM32 °FOvercast.10 mph79%30.07 "Hg10 mi
2:53 PM32 °FOvercast.13 mph82%30.06 "Hg10 mi
1:53 PM32 °FOvercast.14 mph82%30.04 "Hg10 mi
12:53 PM32 °FOvercast.10 mph82%30.04 "Hg10 mi
11:53 AM31 °FOvercast.9 mph85%30.04 "Hg10 mi
10:53 AM32 °FOvercast.12 mph85%30.05 "Hg10 mi
9:53 AM32 °FOvercast.12 mph85%30.05 "Hg9 mi
8:53 AM32 °FLow clouds.10 mph88%30.01 "Hg7 mi
7:53 AM33 °FOvercast.8 mph88%29.99 "Hg9 mi
6:53 AM33 °FMostly cloudy.9 mph88%29.96 "Hg9 mi
5:53 AM32 °FMostly cloudy.10 mph92%29.93 "Hg9 mi
4:53 AM32 °FMostly cloudy.9 mph92%29.92 "Hg8 mi
3:53 AM32 °FMostly cloudy.5 mph92%29.92 "Hg8 mi
2:53 AM32 °FOvercast.6 mph92%29.91 "Hg8 mi
1:53 AM32 °FOvercast.5 mph92%29.90 "Hg8 mi
Weather by CustomWeather, © 2014

See weather overviewHow to use our weather pages